Regional Weather Roundup
Issued by NWS

Home | Current Version | Previous Version | Text Only | Print | Product List | Glossary On
Versions: 1 2 3 4 5 6 7 8 9 10 11 12 13 14 15 16 17 18 19 20 21 22 23 24 25 26 27 28 29 30 31 32 33 34 35 36 37 38 39 40 41 42 43 44 45 46 47 48 49 50
454
ASUS43 KMPX 230110
RWRMN
WEATHER ROUNDUP FOR MINNESOTA
NATIONAL WEATHER SERVICE TWIN CITIES/CHANHASSEN MN
700 PM CST WED FEB 22 2017


NOTE: "FAIR" INDICATES FEW OR NO CLOUDS BELOW 12,000 FEET WITH NO
SIGNIFICANT WEATHER AND/OR OBSTRUCTIONS TO VISIBILITY. N/A MEANS
CURRENT SKY AND/OR WEATHER CONDITIONS ARE NOT AVAILABLE.

MNZ060>063-068>070-230200-
   Twin Cities Metro

CITY           SKY/WX    TMP DP  RH WIND       PRES   REMARKS
TWIN CITIES    PTCLDY    49  42  77 NW3       29.60R
ST PAUL        MOCLDY    48  45  89 NW6       29.61R
CRYSTAL        MOCLDY    46  41  82 W9        29.60R
BLAINE         MOCLDY    48  45  87 W6        29.61R
LAKEVILLE      PTCLDY    46  43  87 W6        29.61R
EDEN PRAIRIE   PTCLDY    45  41  86 W7        29.61R
SOUTH ST PAUL  MOCLDY    50  44  79 NW5       29.60R
LAKE ELMO      MOCLDY    46  45  93 NW5       29.60S
$$
MNZ001>005-007-008-013>017-022>024-027-028-230200-
   Northwest Minnesota

CITY           SKY/WX    TMP DP  RH WIND       PRES   REMARKS
BEMIDJI        CLOUDY    30  26  86 N12G18    29.80R WCI  20
HALLOCK        PTCLDY    30  27  86 N14       29.89R WCI  20
ROSEAU         PTCLDY    28  21  74 NW6       29.85R WCI  22
WARROAD        PTCLDY    30  23  74 NW7       29.84R WCI  23
THIEF RVR FALL PTCLDY    30  25  81 N10       29.87R WCI  21
CROOKSTON      CLOUDY    32  28  86 N10       29.89R WCI  24
FOSSTON        CLOUDY    30  27  86 N12       29.84R WCI  21
DETROIT LAKES  CLOUDY    32  30  93 N6G23     29.81R WCI  26
MOORHEAD       CLOUDY    34  28  80 N18       29.86R WCI  23
PARK RAPIDS    CLOUDY    32  25  75 N20G26    29.77R WCI  20
MAHNOMEN       CLOUDY    31  27  85 N18       29.83R WCI  19
$$
MNZ006-009>011-018-025>026-230200-
   North Central Minnesota

CITY           SKY/WX    TMP DP  RH WIND       PRES   REMARKS
BAUDETTE       CLOUDY    29  21  72 N7        29.81R WCI  22
FLAG ISLAND    CLOUDY    30  21  69 NW17      29.83R WCI  18
INTL FALLS     PTCLDY    30  24  78 NW5       29.78R WCI  25
WASKISH        CLOUDY    30  25  80 CALM      29.81R
BIG FORK       LGT SNOW  32  28  86 N6        29.77R WCI  26
LONGVILLE      MIX PCPN  32  32 100 N6        29.75R WCI  26
GRAND RAPIDS   LGT SNOW  32  31  96 N14G20    29.75R FOG     WCI  22
CRANE LAKE     LGT SNOW  32  28  86 N8        29.77R WCI  25
ORR            LGT SNOW  30  28  93 CALM      29.73R
COOK           LGT SNOW  32  30  93 NW6       29.74R WCI  26
WALKER         LGT SNOW  30  28  93 NW9       29.78R WCI  22
$$
MNZ012-019>021-037-230200-
   Northeast Minnesota

CITY           SKY/WX    TMP DP  RH WIND       PRES   REMARKS
DULUTH         FLURRIES  36  34  92 N9        29.67R
ELY            LGT SNOW  34  32  93 CALM      29.69R
HIBBING        LGT SNOW  32  32 100 N9        29.71R VSB 3/4 WCI  24
EVELETH        LGT SNOW  32  32  98 CALM      29.72R
DULUTH HARBOR  CLOUDY    36  34  93 N15       29.68R
TWO HARBORS    RAIN      37  32  81 CALM      29.67R
SILVER BAY     RAIN      34  34 100 CALM      29.67R
GRAND MARAIS     N/A     39  34  82 CALM      29.66R
G MARAIS ARPRT FLURRIES  34  27  75 N6        29.64R WCI  29
$$
MNZ029>031-032-039>041-046>048-054>057-064-230200-
   West Central Minnesota

CITY           SKY/WX    TMP DP  RH WIND       PRES   REMARKS
FERGUS FALLS   CLOUDY    34  32  93 N10       29.84R WCI  26
WHEATON        CLOUDY    34  30  86 NW18      29.85R WCI  23
MORRIS         CLOUDY    36  34  93 N18       29.77R
ALEXANDRIA     CLOUDY    34  32  92 N12       29.75R WCI  25
ELBOW LAKE     CLOUDY    33  32  97 N14       29.79R WCI  23
WADENA         MIX PCPN  32  30  93 N12       29.76R WCI  23
GLENWOOD       PTCLDY    34  34 100 N14       29.74R WCI  24
APPLETON       CLOUDY    36  34  93 N13G22    29.79R
BENSON         CLOUDY    37  34  87 N15       29.78R
ORTONVILLE     CLOUDY    34  30  86 N16G25    29.81R WCI  23
MADISON        CLOUDY    37  37 100 NW21      29.80R
WILLMAR        LGT RAIN  41  39  93 NW15G21   29.74R
$$
MNZ033>034-036-042>043-049>051-058-059-230200-
   Central Minnesota

CITY           SKY/WX    TMP DP  RH WIND       PRES   REMARKS
ST CLOUD       CLOUDY    39  35  86 N15       29.68R
SAUK CENTRE    RAIN      34  32  93 N14       29.72R WCI  24
PAYNESVILLE    DRIZZLE   38  38 100 N9G17     29.72R
AITKIN         LGT SNOW  36  30  80 NW6       29.70R
PINE RIVER     LGT SNOW  32  32 100 N8        29.79R WCI  25
BRAINERD       LGT SNOW  32  32 100 N14       29.73R VSB 1   WCI  22
STAPLES        LGT SNOW  30  30 100 N10       29.75R WCI  21
LONG PRAIRIE   FLURRIES  32  32 100 NW12G17   29.74R WCI  23
LITTLE FALLS   LGT SNOW  32  32 100 N10       29.72R WCI  24
LITCHFIELD     CLOUDY    45  39  81 NW14G25   29.69R
BUFFALO        MOCLDY    44  38  78 NW15      29.66R
MAPLE LAKE     CLOUDY    44  40  86 NW17G25   29.68R
HUTCHINSON     MOCLDY    45  41  87 NW15G26   29.69R
$$
MNZ037-044-045-052-053-230200-
   East Central Minnesota

CITY           SKY/WX    TMP DP  RH WIND       PRES   REMARKS
PRINCETON      CLOUDY    43  37  81 NW10      29.67R
MORA           DRIZZLE   37  34  87 N13G20    29.67R
CAMBRIDGE      CLOUDY    46  36  66 NW14      29.63R
RUSH CITY      CLOUDY    43  36  75 N9        29.63R
MOOSE LAKE     LGT RAIN  37  34  87 N16       29.66R
HINCKLEY       CLOUDY    41  36  81 N10       29.64R
CLOQUET        LGT RAIN  36  32  87 NW13      29.68R
MCGREGOR       CLOUDY    32  32 100 N9        29.70R WCI  24
$$
MNZ071>073-080-081-089-090-097-098-230200-
   Southwest Minnesota

CITY           SKY/WX    TMP DP  RH WIND       PRES   REMARKS
MONTEVIDEO     CLOUDY    37  36  93 N15G21    29.79R
GRANITE FALLS  CLOUDY    39  37  90 NW17      29.77R
CANBY          CLOUDY    36  34  92 NW14G26   29.80R
MARSHALL       CLOUDY    38  35  89 NW25G33   29.75R
REDWOOD FALLS  CLOUDY    40  35  83 NW15G25   29.72R
OLIVIA         MOCLDY    39  36  87 NW18G25   29.71R
PIPESTONE      MOCLDY    43  36  75 N9        29.75R
WINDOM         PTCLDY    43  37  81 NW17      29.73R
WORTHINGTON    CLOUDY    43  40  89 NW17      29.75R
JACKSON          N/A     41  37  87 NW14G22   29.73R
TRACY          CLOUDY    40  37  91 N16G22    29.75R
SLAYTON        CLOUDY    40  37  92 NW15      29.76R
$$
MNZ065>067-074>077-082>085-091>093-230200-
   South Central Minnesota

CITY           SKY/WX    TMP DP  RH WIND       PRES   REMARKS
MANKATO          N/A     46  42  86 W16G24    29.67R
NEW ULM        CLOUDY    45  39  81 NW24      29.70R
ST JAMES       MOCLDY    43  39  87 W20G26    29.72R
FAIRMONT       CLEAR     44  39  82 NW23G33   29.70R
GLENCOE        MOCLDY    47  44  87 NW12G17   29.65R
FARIBAULT      CLOUDY    50  46  87 W9        29.63R
OWATONNA       PTCLDY    50  45  81 W15       29.63R
WASECA         PTCLDY    48  43  81 W15       29.65R
ALBERT LEA     CLEAR     52  46  82 NW14      29.63R
$$
MNZ078>079-086>088-094>096-230200-
   Southeast Minnesota

CITY           SKY/WX    TMP DP  RH WIND       PRES   REMARKS
ROCHESTER      CLEAR     47  44  90 W8        29.59R
RED WING       MOCLDY    52  41  66 NW3       29.57R
STANTON        MOCLDY    51  45  80 NW10      29.60R
DODGE CENTER   PTCLDY    48  43  81 W9        29.60R
WINONA         CLEAR     46  41  81 CALM      29.57R
AUSTIN         PTCLDY    52  45  76 W3        29.60R
PRESTON        CLEAR     49  43  81 W8        29.60R
$$
ABBREVIATIONS USED IN REMARKS
   TC - TEMPERATURES IN CELSIUS
  WCI - WIND CHILL INDEX
   HX - HEAT INDEX
  VSB - VISIBILITY
$$




USA.gov is the U.S. government's official web portal to all federal, state and local government web resources and services.